Location: Lake Arresoe
(56.0000°N, 12.5000°E)
Time: 11:33:26
(UTC+02:00)

Resurs 1-4 Rocket - Pass Details

Date: 20 August 2020
Orbit: 799 x 815 km, 98.6° (Epoch: 23 September)

Event Time Altitude Azimuth Distance (km) Brightness Sun altitude
Rises 03:07:04 0° 16° (NNE) 3,330 6.8 -17.7°
Reaches altitude 10° 03:09:25 10° 17° (NNE) 2,393 5.8 -17.5°
Maximum altitude 03:14:44 87° 106° (ESE) 811 2.1 -17.1°
Enters shadow 03:17:40 27° 196° (SSW) 1,492 2.9 -16.9°
